Location: Ch�risy
(50.2331°N, 2.9131°E)
Time: 23:47:11
(UTC+00:00)

Cosmos 1674 - Pass Details

Date: 17 January 2021
Orbit: 492 x 518 km, 82.5° (Epoch: 01 March)

Event Time Altitude Azimuth Distance (km) Brightness Sun altitude
Rises 17:05:42 0° 188° (S) 2,623 6.7 -7.7°
Reaches altitude 10° 17:07:49 10° 188° (S) 1,744 5.8 -8.0°
Maximum altitude 17:11:39 88° 103° (ESE) 526 2.7 -8.5°
Drops below altitude 10° 17:15:32 10° 10° (N) 1,763 5.1 -9.1°
Sets 17:17:41 0° 11° (N) 2,656 6.0 -9.4°
